QPF
0.02 0.02 0.03 0.03 0.03 0.04 0.06 0.07 0.08 0.10 0.10 0.08 0.09 0.09 0.07 0.04 0.03 0.03 0.03 0.03 0.04 0.04 0.05 0.06 0.05 0.05 0.05 0.04 0.04 0.04 0.05 0.05 0.04 0.03 0.02 0.02 0.02 0.02 0.02 0.03 0.02 0.02 0.03
0.01 0.02 0.03 0.03 0.04 0.03 0.04 0.06 0.06 0.07 0.10 0.10 0.10 0.10 0.09 0.07 0.04 0.03 0.03 0.04 0.04 0.03 0.03 0.04 0.04 0.04 0.04 0.03 0.03 0.03 0.03 0.03 0.04 0.04 0.04 0.04 0.03 0.02 0.03 0.03 0.04 0.03 0.03
0.01 0.02 0.03 0.04 0.05 0.05 0.04 0.04 0.05 0.06 0.07 0.09 0.09 0.10 0.09 0.08 0.07 0.04 0.03 0.04 0.03 0.03 0.02 0.02 0.02 0.02 0.02 0.02 0.02 0.02 0.02 0.02 0.03 0.03 0.03 0.04 0.04 0.04 0.04 0.04 0.03 0.04 0.03
0.01 0.01 0.01 0.02 0.04 0.05 0.05 0.05 0.05 0.05 0.06 0.06 0.07 0.08 0.08 0.08 0.07 0.06 0.05 0.05 0.04 0.03 0.03 0.02 0.02 0.01 0.01 0.01 0.01 0.02 0.02 0.02 0.03 0.03 0.03 0.03 0.03 0.04 0.04 0.04 0.04 0.04 0.03
0.01 0.01 0.01 0.01 0.02 0.03 0.03 0.04 0.05 0.05 0.06 0.06 0.06 0.06 0.07 0.08 0.08 0.07 0.07 0.07 0.06 0.05 0.04 0.04 0.03 0.03 0.02 0.02 0.02 0.02 0.02 0.03 0.03 0.03 0.03 0.03 0.03 0.04 0.04 0.04 0.04 0.04 0.03
0.01 0.01 0.01 0.02 0.02 0.02 0.02 0.02 0.03 0.05 0.05 0.06 0.07 0.07 0.07 0.07 0.08 0.08 0.07 0.08 0.08 0.06 0.05 0.04 0.04 0.03 0.03 0.03 0.02 0.02 0.02 0.03 0.03 0.04 0.04 0.03 0.03 0.03 0.03 0.04 0.05 0.05 0.04
0.01 0.02 0.01 0.01 0.02 0.02 0.02 0.01 0.02 0.03 0.04 0.06 0.07 0.07 0.07 0.07 0.07 0.07 0.07 0.06 0.07 0.06 0.05 0.05 0.04 0.04 0.03 0.02 0.02 0.02 0.02 0.02 0.03 0.04 0.04 0.04 0.03 0.03 0.03 0.04 0.04 0.04 0.04
0.02 0.02 0.02 0.02 0.02 0.02 0.02 0.02 0.02 0.02 0.03 0.04 0.05 0.06 0.07 0.07 0.07 0.07 0.06 0.05 0.05 0.05 0.05 0.05 0.05 0.05 0.04 0.04 0.04 0.03 0.02 0.02 0.02 0.02 0.03 0.04 0.04 0.04 0.05 0.05 0.05 0.05 0.04
0.02 0.02 0.02 0.02 0.02 0.02 0.02 0.02 0.02 0.02 0.02 0.02 0.03 0.04 0.06 0.07 0.08 0.07 0.06 0.05 0.05 0.04 0.04 0.04 0.05 0.05 0.05 0.05 0.05 0.04 0.03 0.03 0.03 0.03 0.04 0.05 0.06 0.06 0.06 0.07 0.07 0.07 0.06
0.02 0.01 0.02 0.02 0.02 0.02 0.02 0.02 0.03 0.03 0.02 0.02 0.03 0.03 0.04 0.06 0.07 0.07 0.06 0.06 0.06 0.04 0.04 0.04 0.04 0.04 0.05 0.06 0.05 0.05 0.04 0.04 0.03 0.03 0.04 0.04 0.05 0.05 0.06 0.06 0.06 0.06 0.05
0.02 0.01 0.01 0.02 0.02 0.02 0.02 0.02 0.03 0.03 0.03 0.03 0.03 0.04 0.04 0.04 0.05 0.06 0.07 0.07 0.08 0.07 0.05 0.04 0.04 0.04 0.05 0.05 0.05 0.05 0.04 0.04 0.04 0.04 0.04 0.04 0.05 0.05 0.05 0.05 0.04 0.05 0.05
0.03 0.03 0.02 0.02 0.02 0.03 0.03 0.03 0.03 0.04 0.04 0.04 0.04 0.05 0.05 0.05 0.04 0.05 0.07 0.07 0.07 0.07 0.06 0.05 0.05 0.05 0.05 0.04 0.04 0.04 0.04 0.04 0.04 0.04 0.05 0.05 0.05 0.05 0.05 0.04 0.04 0.04 0.04
0.03 0.05 0.05 0.04 0.04 0.04 0.04 0.04 0.03 0.04 0.05 0.06 0.06 0.05 0.05 0.06 0.05 0.05 0.06 0.06 0.07 0.07 0.06 0.05 0.05 0.06 0.05 0.05 0.05 0.04 0.04 0.03 0.04 0.05 0.05 0.04 0.04 0.04 0.04 0.04 0.04 0.04 0.03
0.02 0.04 0.06 0.06 0.06 0.05 0.05 0.05 0.04 0.04 0.04 0.05 0.06 0.06 0.05 0.05 0.05 0.06 0.06 0.06 0.06 0.06 0.07 0.06 0.06 0.05 0.05 0.05 0.05 0.05 0.04 0.04 0.03 0.03 0.03 0.04 0.05 0.05 0.06 0.05 0.05 0.04 0.03
0.03 0.03 0.05 0.06 0.06 0.06 0.06 0.06 0.06 0.04 0.04 0.04 0.04 0.05 0.05 0.05 0.05 0.05 0.06 0.06 0.06 0.06 0.06 0.06 0.06 0.05 0.05 0.05 0.05 0.04 0.04 0.04 0.04 0.04 0.03 0.04 0.05 0.05 0.06 0.06 0.05 0.04 0.04
0.02 0.03 0.04 0.05 0.06 0.06 0.06 0.06 0.07 0.06 0.05 0.05 0.05 0.05 0.05 0.05 0.05 0.06 0.06 0.06 0.07 0.07 0.06 0.05 0.04 0.04 0.03 0.03 0.04 0.04 0.04 0.04 0.04 0.04 0.04 0.04 0.04 0.05 0.05 0.05 0.05 0.04 0.04
0.03 0.03 0.03 0.04 0.06 0.07 0.07 0.07 0.07 0.07 0.07 0.07 0.06 0.06 0.06 0.06 0.06 0.06 0.06 0.07 0.07 0.07 0.06 0.05 0.03 0.03 0.03 0.03 0.03 0.04 0.04 0.04 0.04 0.04 0.04 0.05 0.05 0.05 0.05 0.05 0.05 0.05 0.04
0.03 0.03 0.03 0.04 0.05 0.06 0.07 0.07 0.06 0.06 0.06 0.07 0.07 0.06 0.06 0.06 0.06 0.06 0.06 0.06 0.06 0.05 0.04 0.04 0.04 0.03 0.03 0.03 0.03 0.03 0.03 0.03 0.03 0.04 0.04 0.05 0.05 0.05 0.05 0.05 0.05 0.05 0.05
0.03 0.03 0.03 0.04 0.04 0.05 0.06 0.06 0.06 0.06 0.05 0.05 0.05 0.06 0.06 0.06 0.06 0.05 0.05 0.04 0.04 0.04 0.03 0.03 0.03 0.03 0.03 0.03 0.03 0.03 0.02 0.02 0.02 0.03 0.03 0.04 0.04 0.04 0.04 0.04 0.04 0.04 0.05
0.03 0.04 0.03 0.03 0.04 0.04 0.05 0.05 0.05 0.05 0.05 0.05 0.04 0.04 0.04 0.04 0.04 0.04 0.04 0.03 0.03 0.03 0.02 0.02 0.03 0.03 0.03 0.03 0.03 0.03 0.02 0.02 0.02 0.03 0.03 0.03 0.03 0.04 0.04 0.04 0.04 0.03 0.03
0.03 0.03 0.03 0.03 0.03 0.03 0.03 0.04 0.04 0.04 0.04 0.04 0.04 0.03 0.03 0.03 0.03 0.02 0.02 0.02 0.02 0.02 0.02 0.02 0.02 0.03 0.03 0.03 0.03 0.03 0.02 0.02 0.02 0.02 0.02 0.02 0.03 0.03 0.03 0.03 0.03 0.03 0.03
0.02 0.02 0.02 0.02 0.02 0.02 0.02 0.03 0.03 0.03 0.03 0.03 0.03 0.03 0.03 0.02 0.02 0.01 0.01 0.01 0.01 0.01 0.02 0.02 0.02 0.02 0.02 0.02 0.03 0.03 0.03 0.03 0.03 0.03 0.02 0.02 0.02 0.02 0.03 0.03 0.03 0.04 0.03
0.02 0.02 0.01 0.01 0.01 0.02 0.02 0.02 0.02 0.02 0.02 0.02 0.02 0.02 0.02 0.02 0.01 0.01 0.01 0.01 0.01 0.01 0.01 0.01 0.02 0.02 0.02 0.02 0.02 0.02 0.03 0.03 0.03 0.02 0.03 0.02 0.02 0.02 0.02 0.03 0.03 0.03 0.03
0.01 0.01 0.01 0.01 0.01 0.01 0.01 0.01 0.01 0.01 0.01 0.02 0.02 0.02 0.02 0.02 0.02 0.01 0.01 0.01 0.01 0.01 0.01 0.01 0.02 0.02 0.01 0.01 0.01 0.02 0.02 0.02 0.02 0.02 0.02 0.02 0.02 0.02 0.02 0.02 0.03 0.03 0.03
0.01 0.01 0.01 0.01 0.01 0.01 0.01 0.01 0.01 0.01 0.01 0.01 0.01 0.01 0.01 0.01 0.01 0.02 0.01 0.01 0.01 0.01 0.01 0.01 0.02 0.02 0.01 0.01 0.01 0.01 0.02 0.02 0.02 0.03 0.03 0.03 0.03 0.02 0.02 0.02 0.02 0.03 0.03
0.01 0.01 0.01 0.00 0.00 0.01 0.01 0.01 0.01 0.01 0.01 0.01 0.01 0.01 0.01 0.01 0.01 0.01 0.01 0.02 0.02 0.02 0.01 0.01 0.02 0.02 0.01 0.01 0.01 0.02 0.02 0.02 0.03 0.03 0.04 0.03 0.03 0.02 0.02 0.02 0.02 0.02 0.02
MSLP
1031.79 1031.66 1031.58 1031.56 1031.59 1031.66 1031.73 1031.79 1031.81 1031.79 1031.71 1031.59 1031.45 1031.31 1031.19 1031.11 1031.07 1031.08 1031.13 1031.21 1031.31 1031.42 1031.53 1031.64 1031.76 1031.89 1032.04 1032.20 1032.38 1032.56 1032.72 1032.86 1032.94 1032.97 1032.91 1032.77 1032.54 1032.22 1031.82 1031.34 1030.82 1030.26 1029.69
1031.58 1031.39 1031.26 1031.19 1031.20 1031.25 1031.31 1031.37 1031.39 1031.37 1031.30 1031.18 1031.04 1030.90 1030.79 1030.71 1030.67 1030.68 1030.73 1030.81 1030.89 1030.98 1031.07 1031.15 1031.24 1031.34 1031.47 1031.62 1031.81 1032.01 1032.22 1032.42 1032.58 1032.70 1032.74 1032.70 1032.58 1032.36 1032.07 1031.69 1031.26 1030.79 1030.28
1031.36 1031.09 1030.90 1030.79 1030.75 1030.77 1030.81 1030.84 1030.85 1030.81 1030.73 1030.60 1030.46 1030.32 1030.21 1030.13 1030.10 1030.12 1030.18 1030.25 1030.33 1030.41 1030.48 1030.55 1030.62 1030.70 1030.82 1030.96 1031.15 1031.38 1031.62 1031.88 1032.11 1032.30 1032.43 1032.49 1032.46 1032.35 1032.17 1031.91 1031.59 1031.22 1030.82
1031.18 1030.84 1030.59 1030.41 1030.32 1030.28 1030.27 1030.25 1030.22 1030.15 1030.04 1029.90 1029.74 1029.60 1029.49 1029.42 1029.40 1029.43 1029.50 1029.58 1029.66 1029.75 1029.81 1029.87 1029.93 1030.01 1030.12 1030.27 1030.47 1030.71 1030.98 1031.27 1031.54 1031.78 1031.98 1032.11 1032.17 1032.15 1032.08 1031.94 1031.75 1031.51 1031.23
1031.10 1030.70 1030.37 1030.12 1029.95 1029.84 1029.75 1029.67 1029.58 1029.46 1029.31 1029.14 1028.97 1028.82 1028.70 1028.64 1028.63 1028.67 1028.74 1028.83 1028.92 1029.01 1029.08 1029.14 1029.21 1029.29 1029.41 1029.57 1029.77 1030.02 1030.31 1030.61 1030.90 1031.17 1031.40 1031.57 1031.69 1031.76 1031.78 1031.76 1031.70 1031.60 1031.47
1031.16 1030.68 1030.28 1029.96 1029.70 1029.50 1029.33 1029.16 1029.00 1028.81 1028.61 1028.41 1028.21 1028.05 1027.92 1027.86 1027.84 1027.88 1027.95 1028.04 1028.13 1028.22 1028.30 1028.37 1028.45 1028.54 1028.67 1028.84 1029.05 1029.31 1029.60 1029.90 1030.19 1030.46 1030.69 1030.89 1031.04 1031.17 1031.27 1031.36 1031.42 1031.47 1031.49
1031.33 1030.80 1030.34 1029.93 1029.58 1029.29 1029.02 1028.78 1028.53 1028.28 1028.02 1027.78 1027.55 1027.35 1027.21 1027.12 1027.09 1027.10 1027.16 1027.23 1027.31 1027.39 1027.47 1027.54 1027.63 1027.74 1027.88 1028.06 1028.28 1028.54 1028.83 1029.11 1029.39 1029.65 1029.88 1030.07 1030.25 1030.42 1030.58 1030.76 1030.94 1031.12 1031.28
1031.59 1031.02 1030.50 1030.02 1029.59 1029.21 1028.85 1028.52 1028.20 1027.88 1027.57 1027.27 1027.01 1026.78 1026.60 1026.47 1026.40 1026.37 1026.38 1026.41 1026.46 1026.51 1026.57 1026.64 1026.73 1026.85 1027.00 1027.20 1027.43 1027.70 1027.97 1028.25 1028.51 1028.76 1028.97 1029.17 1029.36 1029.55 1029.77 1030.01 1030.29 1030.58 1030.87
1031.87 1031.28 1030.71 1030.17 1029.67 1029.21 1028.78 1028.37 1027.97 1027.60 1027.23 1026.89 1026.58 1026.30 1026.07 1025.89 1025.75 1025.66 1025.61 1025.58 1025.57 1025.59 1025.62 1025.67 1025.75 1025.87 1026.03 1026.24 1026.48 1026.75 1027.03 1027.30 1027.56 1027.80 1028.01 1028.21 1028.41 1028.63 1028.89 1029.19 1029.53 1029.91 1030.31
1032.10 1031.50 1030.89 1030.31 1029.75 1029.23 1028.73 1028.26 1027.81 1027.38 1026.97 1026.58 1026.22 1025.89 1025.59 1025.34 1025.14 1024.97 1024.83 1024.73 1024.66 1024.62 1024.61 1024.63 1024.70 1024.82 1024.98 1025.20 1025.45 1025.73 1026.01 1026.30 1026.56 1026.81 1027.03 1027.25 1027.47 1027.72 1028.02 1028.36 1028.76 1029.21 1029.68
1032.24 1031.63 1031.00 1030.38 1029.78 1029.21 1028.66 1028.14 1027.64 1027.16 1026.71 1026.27 1025.86 1025.47 1025.11 1024.79 1024.50 1024.25 1024.04 1023.86 1023.72 1023.63 1023.57 1023.57 1023.62 1023.73 1023.90 1024.11 1024.37 1024.66 1024.96 1025.26 1025.54 1025.81 1026.07 1026.32 1026.59 1026.88 1027.22 1027.61 1028.05 1028.54 1029.05
1032.26 1031.64 1030.99 1030.35 1029.71 1029.10 1028.51 1027.95 1027.41 1026.89 1026.39 1025.90 1025.44 1025.00 1024.58 1024.19 1023.83 1023.51 1023.23 1022.98 1022.79 1022.65 1022.56 1022.53 1022.57 1022.67 1022.83 1023.05 1023.31 1023.60 1023.91 1024.23 1024.55 1024.85 1025.16 1025.46 1025.78 1026.13 1026.52 1026.95 1027.43 1027.95 1028.48
1032.16 1031.52 1030.86 1030.19 1029.53 1028.88 1028.26 1027.66 1027.08 1026.52 1025.97 1025.45 1024.94 1024.44 1023.97 1023.52 1023.11 1022.73 1022.40 1022.12 1021.89 1021.72 1021.61 1021.57 1021.59 1021.69 1021.84 1022.05 1022.30 1022.60 1022.92 1023.25 1023.59 1023.94 1024.30 1024.67 1025.06 1025.48 1025.93 1026.41 1026.93 1027.46 1028.01
1031.96 1031.31 1030.63 1029.94 1029.25 1028.57 1027.91 1027.27 1026.65 1026.05 1025.47 1024.89 1024.34 1023.80 1023.28 1022.80 1022.34 1021.94 1021.58 1021.28 1021.04 1020.86 1020.76 1020.71 1020.74 1020.82 1020.96 1021.16 1021.40 1021.68 1021.99 1022.33 1022.69 1023.08 1023.49 1023.93 1024.39 1024.88 1025.40 1025.94 1026.50 1027.06 1027.62
1031.69 1031.02 1030.33 1029.62 1028.91 1028.20 1027.51 1026.83 1026.17 1025.53 1024.90 1024.28 1023.68 1023.11 1022.56 1022.04 1021.57 1021.15 1020.79 1020.50 1020.27 1020.11 1020.02 1019.98 1020.01 1020.09 1020.21 1020.39 1020.60 1020.85 1021.14 1021.47 1021.84 1022.25 1022.70 1023.19 1023.72 1024.28 1024.87 1025.48 1026.09 1026.68 1027.26
1031.38 1030.70 1030.00 1029.27 1028.54 1027.82 1027.10 1026.39 1025.69 1025.00 1024.33 1023.68 1023.04 1022.43 1021.85 1021.32 1020.84 1020.42 1020.07 1019.80 1019.59 1019.46 1019.38 1019.36 1019.39 1019.46 1019.57 1019.71 1019.89 1020.10 1020.36 1020.66 1021.01 1021.42 1021.89 1022.42 1023.00 1023.63 1024.28 1024.95 1025.61 1026.25 1026.86
1031.04 1030.37 1029.67 1028.94 1028.21 1027.47 1026.74 1026.00 1025.27 1024.56 1023.85 1023.15 1022.48 1021.84 1021.24 1020.69 1020.20 1019.79 1019.45 1019.19 1019.01 1018.89 1018.84 1018.83 1018.86 1018.92 1019.00 1019.10 1019.24 1019.40 1019.60 1019.86 1020.18 1020.58 1021.04 1021.59 1022.20 1022.87 1023.57 1024.29 1025.01 1025.70 1026.34
1030.70 1030.05 1029.36 1028.66 1027.94 1027.21 1026.47 1025.73 1024.98 1024.24 1023.50 1022.78 1022.08 1021.41 1020.78 1020.22 1019.72 1019.30 1018.96 1018.70 1018.52 1018.41 1018.36 1018.35 1018.37 1018.41 1018.46 1018.53 1018.61 1018.72 1018.87 1019.08 1019.35 1019.71 1020.16 1020.69 1021.30 1021.99 1022.72 1023.48 1024.23 1024.97 1025.67
1030.37 1029.75 1029.10 1028.44 1027.76 1027.05 1026.33 1025.59 1024.85 1024.10 1023.34 1022.60 1021.87 1021.18 1020.53 1019.94 1019.42 1018.97 1018.61 1018.34 1018.14 1018.02 1017.94 1017.91 1017.91 1017.92 1017.94 1017.96 1018.00 1018.06 1018.16 1018.31 1018.54 1018.84 1019.25 1019.75 1020.34 1021.01 1021.74 1022.51 1023.30 1024.07 1024.82
1030.04 1029.48 1028.90 1028.29 1027.66 1027.00 1026.32 1025.61 1024.88 1024.14 1023.38 1022.63 1021.89 1021.17 1020.50 1019.87 1019.32 1018.83 1018.43 1018.12 1017.88 1017.71 1017.59 1017.52 1017.47 1017.45 1017.43 1017.42 1017.41 1017.43 1017.48 1017.58 1017.75 1018.01 1018.35 1018.80 1019.34 1019.98 1020.68 1021.44 1022.23 1023.02 1023.81
1029.73 1029.25 1028.74 1028.21 1027.65 1027.05 1026.41 1025.74 1025.05 1024.32 1023.58 1022.84 1022.09 1021.36 1020.67 1020.01 1019.41 1018.88 1018.42 1018.04 1017.73 1017.49 1017.31 1017.18 1017.08 1017.00 1016.94 1016.89 1016.85 1016.84 1016.85 1016.91 1017.03 1017.23 1017.51 1017.90 1018.37 1018.94 1019.59 1020.31 1021.08 1021.88 1022.70
1029.45 1029.05 1028.63 1028.18 1027.68 1027.15 1026.57 1025.95 1025.30 1024.61 1023.90 1023.17 1022.43 1021.70 1020.99 1020.30 1019.66 1019.08 1018.55 1018.09 1017.70 1017.38 1017.12 1016.91 1016.74 1016.60 1016.50 1016.41 1016.34 1016.29 1016.28 1016.30 1016.38 1016.53 1016.75 1017.06 1017.46 1017.96 1018.54 1019.20 1019.92 1020.70 1021.53
1029.19 1028.88 1028.53 1028.15 1027.72 1027.25 1026.73 1026.16 1025.55 1024.90 1024.23 1023.53 1022.82 1022.10 1021.38 1020.69 1020.01 1019.38 1018.78 1018.25 1017.77 1017.36 1017.00 1016.70 1016.46 1016.26 1016.09 1015.96 1015.86 1015.79 1015.75 1015.75 1015.79 1015.90 1016.06 1016.31 1016.63 1017.05 1017.55 1018.14 1018.81 1019.55 1020.35
1028.95 1028.70 1028.41 1028.09 1027.71 1027.29 1026.81 1026.29 1025.72 1025.12 1024.49 1023.83 1023.16 1022.46 1021.76 1021.06 1020.37 1019.70 1019.06 1018.45 1017.89 1017.38 1016.94 1016.55 1016.22 1015.94 1015.71 1015.54 1015.40 1015.30 1015.23 1015.21 1015.22 1015.29 1015.41 1015.60 1015.86 1016.20 1016.62 1017.14 1017.75 1018.44 1019.22
1028.67 1028.46 1028.22 1027.93 1027.59 1027.20 1026.76 1026.27 1025.75 1025.19 1024.61 1024.00 1023.37 1022.71 1022.04 1021.36 1020.67 1019.98 1019.30 1018.63 1018.00 1017.42 1016.88 1016.40 1015.98 1015.62 1015.33 1015.09 1014.91 1014.77 1014.68 1014.63 1014.62 1014.65 1014.74 1014.88 1015.09 1015.38 1015.74 1016.20 1016.75 1017.40 1018.14
1028.31 1028.13 1027.91 1027.64 1027.31 1026.94 1026.52 1026.06 1025.58 1025.06 1024.53 1023.97 1023.39 1022.79 1022.16 1021.51 1020.83 1020.14 1019.44 1018.73 1018.05 1017.39 1016.77 1016.21 1015.70 1015.26 1014.89 1014.59 1014.35 1014.17 1014.04 1013.96 1013.92 1013.94 1014.00 1014.12 1014.30 1014.55 1014.88 1015.30 1015.81 1016.41 1017.11
Thickness
5415 5415 5415 5415 5416 5416 5416 5417 5417 5418 5418 5420 5420 5421 5421 5423 5425 5426 5427 5427 5427 5427 5428 5428 5428 5429 5430 5430 5429 5429 5430 5431 5433 5437 5437 5438 5438 5439 5441 5442 5444 5446 5449
5401 5402 5402 5402 5402 5403 5403 5403 5403 5404 5405 5406 5406 5406 5407 5409 5411 5412 5414 5414 5414 5414 5415 5416 5415 5416 5417 5417 5417 5417 5417 5418 5419 5422 5423 5423 5424 5425 5427 5428 5430 5432 5435
5388 5388 5389 5389 5388 5389 5389 5389 5389 5390 5391 5392 5392 5393 5394 5396 5397 5399 5400 5401 5401 5401 5402 5403 5403 5404 5404 5404 5405 5404 5405 5405 5406 5407 5409 5410 5411 5412 5412 5414 5416 5418 5421
5375 5375 5375 5375 5375 5375 5375 5376 5376 5376 5377 5378 5378 5379 5381 5382 5384 5386 5387 5387 5388 5389 5390 5391 5391 5392 5393 5392 5392 5392 5392 5392 5392 5393 5395 5396 5397 5397 5397 5400 5402 5404 5407
5363 5362 5362 5362 5363 5362 5362 5362 5362 5363 5363 5364 5365 5366 5367 5368 5370 5372 5374 5375 5375 5376 5377 5377 5378 5378 5380 5380 5380 5379 5378 5378 5378 5379 5381 5382 5383 5383 5384 5386 5388 5389 5393
5350 5350 5350 5349 5349 5349 5349 5348 5349 5349 5349 5350 5352 5352 5353 5355 5358 5360 5362 5362 5363 5363 5364 5364 5364 5365 5365 5366 5366 5367 5367 5366 5366 5366 5368 5370 5372 5371 5371 5371 5372 5373 5378
5338 5338 5337 5337 5337 5337 5336 5336 5336 5336 5336 5337 5337 5338 5340 5342 5344 5347 5348 5349 5350 5350 5350 5350 5351 5350 5351 5351 5351 5352 5352 5352 5353 5354 5356 5358 5358 5359 5358 5358 5358 5359 5363
5326 5325 5325 5325 5325 5324 5323 5323 5322 5322 5322 5323 5323 5324 5326 5328 5330 5333 5334 5335 5336 5336 5336 5336 5336 5337 5336 5336 5337 5337 5337 5338 5339 5340 5342 5344 5343 5343 5343 5344 5344 5344 5347
5313 5313 5313 5313 5312 5311 5310 5310 5310 5309 5309 5309 5309 5310 5311 5313 5315 5318 5319 5320 5322 5322 5322 5323 5323 5323 5324 5324 5323 5322 5323 5323 5323 5325 5327 5328 5328 5329 5328 5327 5327 5327 5332
5302 5302 5301 5301 5300 5299 5298 5297 5297 5296 5296 5296 5296 5296 5297 5299 5301 5303 5304 5305 5307 5308 5308 5308 5309 5309 5310 5310 5309 5308 5308 5308 5308 5309 5311 5312 5313 5313 5313 5313 5313 5313 5316
5289 5289 5288 5288 5287 5286 5285 5284 5283 5282 5282 5282 5282 5282 5283 5284 5286 5289 5290 5290 5292 5292 5293 5294 5294 5295 5296 5296 5295 5295 5295 5294 5293 5294 5296 5297 5297 5298 5299 5299 5299 5300 5302
5276 5276 5275 5274 5274 5274 5272 5270 5269 5268 5267 5267 5267 5267 5268 5269 5271 5273 5275 5277 5278 5277 5278 5279 5280 5281 5281 5281 5281 5282 5281 5280 5279 5279 5281 5282 5283 5284 5285 5286 5286 5287 5289
5263 5262 5261 5260 5260 5259 5258 5256 5255 5253 5253 5253 5253 5253 5254 5255 5256 5258 5260 5262 5263 5263 5264 5265 5266 5266 5265 5265 5265 5266 5265 5264 5264 5265 5267 5268 5269 5270 5271 5272 5273 5274 5276
5249 5248 5248 5246 5245 5243 5243 5242 5241 5239 5238 5238 5239 5239 5239 5240 5241 5242 5243 5245 5247 5248 5247 5249 5250 5250 5250 5250 5249 5248 5249 5249 5250 5251 5252 5253 5254 5255 5257 5257 5258 5260 5262
5235 5235 5233 5233 5231 5229 5228 5227 5227 5226 5226 5226 5226 5225 5226 5227 5228 5230 5230 5232 5232 5232 5232 5232 5233 5233 5233 5233 5233 5233 5232 5233 5234 5235 5236 5238 5239 5241 5242 5243 5244 5246 5248
5222 5221 5220 5218 5216 5215 5214 5213 5212 5212 5214 5215 5215 5215 5215 5216 5216 5217 5218 5219 5219 5218 5217 5216 5216 5216 5216 5216 5217 5217 5217 5218 5218 5219 5221 5222 5224 5226 5228 5229 5231 5232 5235
5207 5206 5205 5205 5202 5201 5200 5198 5198 5198 5198 5200 5201 5202 5202 5202 5203 5203 5203 5204 5204 5203 5200 5200 5200 5200 5199 5199 5200 5201 5202 5203 5204 5205 5206 5207 5209 5211 5213 5215 5217 5219 5222
5193 5193 5192 5190 5188 5186 5185 5184 5183 5182 5182 5182 5183 5185 5186 5187 5188 5188 5187 5187 5186 5184 5183 5183 5184 5184 5184 5184 5184 5185 5187 5188 5189 5190 5192 5193 5194 5196 5198 5201 5203 5205 5208
5180 5178 5177 5176 5174 5172 5171 5169 5168 5167 5167 5167 5168 5168 5170 5171 5172 5171 5170 5169 5168 5168 5167 5167 5168 5168 5168 5168 5169 5170 5171 5173 5175 5176 5178 5180 5181 5183 5185 5187 5189 5193 5195
5165 5166 5165 5162 5160 5158 5157 5155 5154 5153 5152 5152 5153 5153 5154 5155 5155 5154 5153 5152 5152 5152 5152 5153 5154 5154 5155 5155 5155 5156 5157 5159 5161 5163 5165 5166 5168 5170 5171 5173 5175 5178 5182
5151 5150 5151 5149 5146 5144 5143 5141 5140 5139 5138 5138 5138 5138 5140 5140 5140 5138 5137 5137 5137 5137 5137 5138 5140 5141 5141 5141 5142 5143 5145 5147 5149 5151 5152 5154 5156 5157 5159 5161 5163 5165 5168
5137 5136 5134 5133 5132 5131 5129 5128 5126 5126 5125 5125 5125 5125 5127 5126 5124 5124 5123 5124 5124 5124 5125 5125 5126 5127 5128 5129 5130 5132 5134 5135 5137 5139 5141 5142 5144 5145 5147 5148 5150 5152 5155
5124 5122 5121 5119 5118 5118 5117 5114 5113 5112 5111 5111 5111 5111 5111 5111 5111 5111 5111 5111 5111 5112 5113 5113 5114 5115 5117 5118 5120 5121 5123 5125 5127 5129 5130 5132 5133 5135 5136 5138 5139 5141 5144
5110 5108 5107 5105 5104 5103 5102 5101 5100 5099 5099 5098 5098 5098 5098 5098 5098 5098 5098 5099 5099 5100 5101 5102 5103 5105 5107 5108 5110 5112 5113 5115 5117 5119 5121 5122 5124 5126 5127 5128 5130 5132 5134
5097 5095 5093 5092 5091 5090 5089 5088 5087 5086 5086 5085 5085 5085 5085 5085 5085 5085 5086 5087 5088 5089 5091 5092 5093 5095 5097 5098 5101 5103 5105 5107 5110 5112 5113 5114 5116 5118 5119 5120 5121 5123 5125
5084 5082 5080 5079 5078 5077 5076 5075 5074 5073 5073 5073 5073 5073 5073 5073 5073 5074 5075 5076 5077 5079 5080 5082 5084 5085 5087 5089 5092 5095 5098 5101 5103 5105 5106 5108 5109 5110 5111 5112 5113 5114 5115